| time (UTC) | temp F | wind direction | speed MPH | gust MPH | rain 1hr in | rain 24hr in | rain mn in | humidity % | barometer mb |
| 20260507040701 | 43 | 57 | 1.0 | 2.0 | 0.00 | 0.38 | 0.00 | 100 | 1015.5 |
| 20260507040201 | 43 | 48 | 0.0 | 2.0 | 0.00 | 0.38 | 0.00 | 100 | 1015.4 |
| 20260507035701 | 43 | 0 | 0.0 | 1.0 | 0.00 | 0.38 | 0.00 | 99 | 1015.7 |
| 20260507035201 | 43 | 0 | 0.0 | 1.0 | 0.00 | 0.38 | 0.00 | 99 | 1015.8 |
| 20260507034703 | 43 | 0 | 0.0 | 1.0 | 0.00 | 0.38 | 0.00 | 99 | 1015.9 |
| 20260507034201 | 44 | 0 | 0.0 | 1.0 | 0.00 | 0.38 | 0.00 | 99 | 1015.8 |
| 20260507033701 | 44 | 0 | 0.0 | 0.0 | 0.00 | 0.38 | 0.00 | 99 | 1015.8 |
| 20260507033201 | 44 | 0 | 0.0 | 0.0 | 0.00 | 0.38 | 0.00 | 99 | 1015.9 |
| 20260507033015 | 44 | 0 | 0.0 | 1.0 | 0.00 | 0.38 | 0.00 | 99 | 1015.9 |
| 20260507032203 | 44 | 0 | 0.0 | 1.0 | 0.00 | 0.38 | 0.00 | 99 | 1015.6 |
| 20260507031702 | 44 | 0 | 0.0 | 0.0 | 0.00 | 0.38 | 0.00 | 99 | 1015.7 |
| 20260507031157 | 45 | 0 | 0.0 | 3.0 | 0.00 | 0.38 | 0.00 | 99 | 1015.7 |
| 20260507030657 | 45 | 0 | 0.0 | 3.0 | 0.00 | 0.38 | 0.00 | 99 | 1015.6 |
| 20260507030159 | 45 | 0 | 0.0 | 2.0 | 0.00 | 0.38 | 0.00 | 99 | 1015.6 |
| 20260507025701 | 45 | 157 | 0.0 | 2.0 | 0.00 | 0.38 | 0.00 | 99 | 1015.5 |
| 20260507025159 | 45 | 0 | 0.0 | 2.0 | 0.00 | 0.38 | 0.00 | 99 | 1015.6 |
| 20260507024700 | 45 | 172 | 0.0 | 2.0 | 0.00 | 0.38 | 0.00 | 99 | 1015.6 |
| 20260507024201 | 45 | 0 | 0.0 | 2.0 | 0.00 | 0.38 | 0.00 | 99 | 1015.4 |
| 20260507023701 | 45 | 0 | 0.0 | 1.0 | 0.00 | 0.38 | 0.00 | 99 | 1015.3 |
| 20260507023533 | 46 | 0 | 0.0 | 1.0 | 0.00 | 0.38 | 0.00 | 99 | 1015.2 |
| 20260507022701 | 46 | 0 | 0.0 | 2.0 | 0.00 | 0.38 | 0.00 | 99 | 1015.2 |
| 20260507022200 | 46 | 0 | 0.0 | 2.0 | 0.00 | 0.38 | 0.00 | 99 | 1015.1 |
| 20260507021659 | 46 | 0 | 0.0 | 2.0 | 0.00 | 0.38 | 0.00 | 99 | 1015.2 |
| 20260507021158 | 46 | 0 | 0.0 | 0.0 | 0.00 | 0.38 | 0.00 | 99 | 1015.2 |
| 20260507020656 | 46 | 0 | 0.0 | 1.0 | 0.00 | 0.38 | 0.00 | 99 | 1015.1 |
| 20260507020156 | 46 | 0 | 0.0 | 1.0 | 0.00 | 0.38 | 0.00 | 99 | 1015.1 |
| 20260507015657 | 46 | 0 | 0.0 | 1.0 | 0.00 | 0.38 | 0.00 | 99 | 1015.1 |
| 20260507015157 | 46 | 0 | 0.0 | 1.0 | 0.00 | 0.38 | 0.00 | 99 | 1015.1 |
| 20260507014657 | 46 | 0 | 0.0 | 3.0 | 0.00 | 0.38 | 0.00 | 99 | 1015.1 |
| 20260507014156 | 46 | 0 | 0.0 | 3.0 | 0.00 | 0.38 | 0.00 | 99 | 1015.1 |
| 20260507013656 | 46 | 0 | 0.0 | 3.0 | 0.00 | 0.38 | 0.00 | 99 | 1015.1 |
| 20260507013158 | 46 | 0 | 0.0 | 3.0 | 0.00 | 0.38 | 0.00 | 99 | 1015.0 |
| 20260507012658 | 46 | 0 | 0.0 | 3.0 | 0.00 | 0.38 | 0.00 | 99 | 1015.0 |
| 20260507012155 | 46 | 327 | 0.0 | 3.0 | 0.00 | 0.38 | 0.00 | 99 | 1015.0 |
| 20260507012008 | 46 | 331 | 0.0 | 3.0 | 0.00 | 0.38 | 0.00 | 99 | 1015.1 |
| 20260507011616 | 46 | 0 | 0.0 | 3.0 | 0.00 | 0.38 | 0.00 | 99 | 1015.1 |
| 20260507011007 | 46 | 0 | 0.0 | 3.0 | 0.00 | 0.38 | 0.00 | 99 | 1015.1 |
| 20260507010151 | 46 | 12 | 0.0 | 3.0 | 0.00 | 0.38 | 0.00 | 99 | 1015.1 |
| 20260507010003 | 46 | 0 | 0.0 | 3.0 | 0.00 | 0.38 | 0.00 | 99 | 1015.1 |
| 20260507005151 | 46 | 0 | 0.0 | 3.0 | 0.00 | 0.38 | 0.00 | 99 | 1015.1 |
| 20260507004651 | 46 | 0 | 0.0 | 3.0 | 0.00 | 0.38 | 0.00 | 99 | 1015.1 |
| 20260507004150 | 46 | 319 | 0.0 | 3.0 | 0.00 | 0.38 | 0.00 | 99 | 1015.1 |
| 20260507003649 | 46 | 351 | 0.0 | 3.0 | 0.00 | 0.38 | 0.00 | 99 | 1015.1 |
| 20260507003150 | 46 | 337 | 0.0 | 3.0 | 0.00 | 0.38 | 0.00 | 99 | 1015.1 |
| 20260507002649 | 46 | 0 | 0.0 | 3.0 | 0.00 | 0.38 | 0.00 | 99 | 1015.1 |
| 20260507002244 | 46 | 0 | 1.0 | 3.0 | 0.00 | 0.38 | 0.00 | 99 | 1015.0 |
| 20260507001144 | 46 | 0 | 0.0 | 3.0 | 0.00 | 0.38 | 0.00 | 99 | 1015.1 |
| 20260507001032 | 46 | 324 | 0.0 | 3.0 | 0.00 | 0.38 | 0.00 | 99 | 1015.2 |
| 20260507000141 | 46 | 5 | 0.0 | 2.0 | 0.00 | 0.38 | 0.00 | 99 | 1015.2 |
| 20260506235641 | 46 | 0 | 0.0 | 3.0 | 0.00 | 0.38 | 0.00 | 99 | 1015.2 |
| 20260506235141 | 46 | 0 | 0.0 | 3.0 | 0.00 | 0.38 | 0.00 | 99 | 1015.2 |
| 20260506234950 | 46 | 0 | 0.0 | 3.0 | 0.00 | 0.38 | 0.00 | 99 | 1015.2 |
| 20260506234142 | 46 | 0 | 0.0 | 3.0 | 0.00 | 0.38 | 0.00 | 99 | 1015.2 |
| 20260506233951 | 46 | 0 | 0.0 | 3.0 | 0.00 | 0.38 | 0.00 | 99 | 1015.2 |
| 20260506233137 | 46 | 324 | 0.0 | 3.0 | 0.00 | 0.38 | 0.00 | 99 | 1015.1 |
| 20260506232639 | 46 | 123 | 0.0 | 3.0 | 0.00 | 0.38 | 0.00 | 99 | 1015.1 |
| 20260506232138 | 46 | 0 | 0.0 | 3.0 | 0.00 | 0.38 | 0.00 | 99 | 1015.2 |
| 20260506231638 | 46 | 0 | 0.0 | 3.0 | 0.00 | 0.38 | 0.00 | 99 | 1015.1 |
| 20260506231455 | 46 | 0 | 0.0 | 3.0 | 0.00 | 0.38 | 0.00 | 98 | 1015.1 |
| 20260506230637 | 46 | 343 | 0.0 | 4.0 | 0.00 | 0.38 | 0.00 | 98 | 1015.0 |
| 20260506230132 | 46 | 0 | 0.0 | 4.0 | 0.00 | 0.38 | 0.00 | 98 | 1015.0 |
| 20260506225632 | 46 | 1 | 0.0 | 3.0 | 0.00 | 0.38 | 0.38 | 98 | 1015.0 |
| 20260506225133 | 46 | 33 | 0.0 | 3.0 | 0.00 | 0.38 | 0.38 | 98 | 1015.0 |
| 20260506224633 | 46 | 0 | 0.0 | 2.0 | 0.00 | 0.38 | 0.38 | 98 | 1015.0 |
| 20260506224132 | 46 | 0 | 0.0 | 2.0 | 0.00 | 0.38 | 0.38 | 98 | 1015.0 |
| 20260506223631 | 46 | 52 | 0.0 | 2.0 | 0.00 | 0.38 | 0.38 | 98 | 1015.0 |
| 20260506223131 | 46 | 0 | 0.0 | 2.0 | 0.00 | 0.38 | 0.38 | 98 | 1015.0 |
| 20260506222631 | 46 | 0 | 0.0 | 2.0 | 0.00 | 0.38 | 0.38 | 98 | 1015.0 |
| 20260506222130 | 46 | 0 | 0.0 | 2.0 | 0.00 | 0.38 | 0.38 | 98 | 1015.1 |
| 20260506221940 | 46 | 53 | 0.0 | 2.0 | 0.00 | 0.38 | 0.38 | 98 | 1015.1 |
| 20260506221131 | 46 | 0 | 0.0 | 1.0 | 0.00 | 0.38 | 0.38 | 98 | 1015.1 |
| 20260506220631 | 46 | 0 | 0.0 | 1.0 | 0.00 | 0.38 | 0.38 | 98 | 1015.1 |
| 20260506220131 | 46 | 0 | 0.0 | 3.0 | 0.00 | 0.38 | 0.38 | 98 | 1015.1 |
| 20260506215631 | 47 | 0 | 0.0 | 3.0 | 0.00 | 0.38 | 0.38 | 98 | 1015.1 |
| 20260506215228 | 47 | 197 | 0.0 | 3.0 | 0.00 | 0.38 | 0.38 | 98 | 1015.0 |
| 20260506214132 | 47 | 264 | 0.0 | 5.0 | 0.02 | 0.38 | 0.38 | 99 | 1014.9 |
| 20260506213631 | 47 | 0 | 0.0 | 5.0 | 0.02 | 0.38 | 0.38 | 99 | 1014.9 |
| 20260506213133 | 47 | 0 | 1.0 | 4.0 | 0.03 | 0.38 | 0.38 | 99 | 1014.8 |
| 20260506212632 | 47 | 0 | 1.0 | 5.0 | 0.04 | 0.38 | 0.38 | 99 | 1014.8 |
| 20260506212130 | 47 | 116 | 1.0 | 5.0 | 0.04 | 0.38 | 0.38 | 99 | 1014.7 |
| 20260506211632 | 47 | 146 | 1.0 | 4.0 | 0.04 | 0.38 | 0.38 | 99 | 1014.7 |
| 20260506211133 | 47 | 0 | 1.0 | 4.0 | 0.04 | 0.38 | 0.38 | 99 | 1014.6 |
| 20260506210634 | 47 | 82 | 0.0 | 3.0 | 0.04 | 0.38 | 0.38 | 99 | 1014.6 |
| 20260506210135 | 47 | 0 | 0.0 | 3.0 | 0.04 | 0.38 | 0.38 | 99 | 1014.6 |
| 20260506205949 | 47 | 4 | 1.0 | 3.0 | 0.03 | 0.38 | 0.38 | 99 | 1014.5 |
| 20260506205134 | 47 | 0 | 1.0 | 3.0 | 0.04 | 0.38 | 0.37 | 99 | 1014.5 |
| 20260506204633 | 47 | 0 | 1.0 | 4.0 | 0.03 | 0.37 | 0.37 | 99 | 1014.5 |
| 20260506204135 | 47 | 24 | 1.0 | 4.0 | 0.02 | 0.36 | 0.36 | 98 | 1014.5 |
| 20260506203946 | 47 | 27 | 1.0 | 4.0 | 0.02 | 0.36 | 0.36 | 98 | 1014.5 |
| 20260506203130 | 47 | 57 | 2.0 | 5.0 | 0.02 | 0.35 | 0.35 | 98 | 1014.5 |
| 20260506202626 | 47 | 61 | 1.0 | 5.0 | 0.02 | 0.35 | 0.35 | 98 | 1014.4 |
| 20260506202125 | 47 | 57 | 1.0 | 6.0 | 0.02 | 0.35 | 0.35 | 98 | 1014.4 |
| 20260506201628 | 47 | 35 | 1.0 | 6.0 | 0.03 | 0.35 | 0.35 | 98 | 1014.4 |
| 20260506201127 | 47 | 0 | 1.0 | 5.0 | 0.03 | 0.35 | 0.35 | 98 | 1014.4 |
| 20260506200627 | 47 | 0 | 1.0 | 5.0 | 0.03 | 0.35 | 0.35 | 98 | 1014.4 |
| 20260506200124 | 47 | 293 | 1.0 | 5.0 | 0.03 | 0.35 | 0.35 | 98 | 1014.4 |
| 20260506195624 | 47 | 43 | 1.0 | 6.0 | 0.03 | 0.35 | 0.35 | 98 | 1014.3 |
| 20260506195123 | 47 | 59 | 1.0 | 7.0 | 0.02 | 0.34 | 0.34 | 98 | 1014.3 |
| 20260506194940 | 47 | 247 | 1.0 | 7.0 | 0.02 | 0.34 | 0.34 | 98 | 1014.3 |
| 20260506194125 | 47 | 44 | 2.0 | 6.0 | 0.02 | 0.34 | 0.34 | 98 | 1014.2 |
| 20260506193624 | 47 | 355 | 1.0 | 6.0 | 0.02 | 0.34 | 0.34 | 98 | 1014.1 |
| 20260506193124 | 47 | 0 | 1.0 | 6.0 | 0.02 | 0.33 | 0.33 | 98 | 1014.1 |
| 20260506192621 | 48 | 68 | 1.0 | 6.0 | 0.01 | 0.33 | 0.33 | 98 | 1014.1 |
| 20260506192118 | 48 | 72 | 1.0 | 4.0 | 0.00 | 0.32 | 0.32 | 98 | 1014.0 |
| 20260506191620 | 48 | 133 | 1.0 | 4.0 | 0.00 | 0.32 | 0.32 | 98 | 1014.0 |
| 20260506191119 | 48 | 112 | 0.0 | 4.0 | 0.00 | 0.32 | 0.32 | 98 | 1013.9 |
| 20260506190620 | 48 | 0 | 1.0 | 4.0 | 0.00 | 0.32 | 0.32 | 97 | 1013.9 |
| 20260506190210 | 48 | 0 | 1.0 | 4.0 | 0.00 | 0.32 | 0.32 | 97 | 1013.9 |
| 20260506185116 | 48 | 0 | 2.0 | 8.0 | 0.02 | 0.32 | 0.32 | 97 | 1013.7 |
| 20260506184615 | 48 | 309 | 2.0 | 8.0 | 0.02 | 0.32 | 0.32 | 97 | 1013.7 |
| 20260506184116 | 48 | 311 | 1.0 | 6.0 | 0.03 | 0.32 | 0.32 | 97 | 1013.6 |
| 20260506183617 | 48 | 0 | 0.0 | 4.0 | 0.04 | 0.32 | 0.32 | 97 | 1013.6 |
| 20260506183116 | 48 | 0 | 0.0 | 4.0 | 0.04 | 0.32 | 0.32 | 97 | 1013.5 |
| 20260506182616 | 48 | 319 | 0.0 | 3.0 | 0.04 | 0.32 | 0.32 | 97 | 1013.5 |
| 20260506182116 | 48 | 0 | 0.0 | 3.0 | 0.06 | 0.32 | 0.32 | 97 | 1013.5 |
| 20260506181616 | 48 | 0 | 0.0 | 4.0 | 0.07 | 0.32 | 0.32 | 97 | 1013.5 |
| 20260506181114 | 48 | 4 | 0.0 | 4.0 | 0.07 | 0.31 | 0.31 | 97 | 1013.5 |
| 20260506180613 | 48 | 0 | 1.0 | 5.0 | 0.07 | 0.31 | 0.31 | 97 | 1013.4 |
| 20260506180115 | 48 | 24 | 1.0 | 5.0 | 0.07 | 0.31 | 0.31 | 96 | 1013.4 |
| 20260506175612 | 48 | 44 | 1.0 | 6.0 | 0.06 | 0.31 | 0.31 | 96 | 1013.3 |
| 20260506175436 | 49 | 109 | 1.0 | 6.0 | 0.06 | 0.30 | 0.30 | 96 | 1013.2 |
| 20260506174610 | 49 | 0 | 1.0 | 5.0 | 0.05 | 0.30 | 0.29 | 96 | 1013.2 |
| 20260506174108 | 49 | 311 | 1.0 | 6.0 | 0.04 | 0.29 | 0.28 | 95 | 1013.2 |
| 20260506173609 | 49 | 92 | 1.0 | 6.0 | 0.04 | 0.28 | 0.28 | 95 | 1013.2 |
| 20260506173447 | 49 | 81 | 1.0 | 6.0 | 0.04 | 0.28 | 0.28 | 95 | 1013.2 |
| 20260506172609 | 49 | 340 | 2.0 | 6.0 | 0.03 | 0.28 | 0.28 | 94 | 1013.3 |
| 20260506172109 | 49 | 33 | 2.0 | 10.0 | 0.02 | 0.26 | 0.25 | 94 | 1013.3 |
| 20260506171920 | 50 | 69 | 4.0 | 12.0 | 0.00 | 0.24 | 0.24 | 94 | 1013.2 |
| 20260506171216 | 50 | 341 | 6.0 | 13.0 | 0.00 | 0.24 | 0.24 | 94 | 1012.8 |
| 20260506170118 | 50 | 322 | 5.0 | 13.0 | 0.00 | 0.24 | 0.24 | 94 | 1012.6 |
| 20260506165604 | 50 | 298 | 6.0 | 12.0 | 0.00 | 0.24 | 0.24 | 94 | 1012.5 |
| 20260506165103 | 50 | 334 | 6.0 | 12.0 | 0.00 | 0.24 | 0.24 | 94 | 1012.5 |
| 20260506164916 | 50 | 332 | 5.0 | 12.0 | 0.02 | 0.24 | 0.24 | 94 | 1012.6 |
| 20260506164104 | 50 | 329 | 5.0 | 11.0 | 0.02 | 0.24 | 0.24 | 94 | 1012.6 |
| 20260506164055 | 50 | 337 | 5.0 | 11.0 | 0.02 | 0.24 | 0.24 | 94 | 1012.8 |
| 20260506162937 | 50 | 340 | 4.0 | 11.0 | 0.02 | 0.24 | 0.24 | 94 | 1012.8 |
| 20260506162438 | 50 | 325 | 3.0 | 11.0 | 0.02 | 0.24 | 0.24 | 93 | 1012.9 |
| 20260506161601 | 50 | 359 | 3.0 | 11.0 | 0.02 | 0.24 | 0.24 | 93 | 1012.9 |
| 20260506161107 | 50 | 36 | 4.0 | 10.0 | 0.02 | 0.24 | 0.24 | 93 | 1012.9 |
| 20260506160602 | 50 | 321 | 3.0 | 10.0 | 0.02 | 0.24 | 0.24 | 92 | 1013.1 |
| 20260506160110 | 51 | 9 | 2.0 | 8.0 | 0.02 | 0.24 | 0.24 | 92 | 1013.2 |
| 20260506155602 | 51 | 353 | 2.0 | 8.0 | 0.02 | 0.24 | 0.24 | 91 | 1013.3 |
| 20260506155058 | 51 | 342 | 2.0 | 6.0 | 0.02 | 0.24 | 0.24 | 89 | 1013.3 |
| 20260506154556 | 51 | 0 | 2.0 | 7.0 | 0.00 | 0.22 | 0.22 | 88 | 1013.3 |
| 20260506154057 | 52 | 71 | 2.0 | 8.0 | 0.00 | 0.22 | 0.22 | 87 | 1013.3 |
| 20260506153558 | 52 | 86 | 2.0 | 11.0 | 0.00 | 0.22 | 0.22 | 86 | 1013.2 |
| 20260506153057 | 52 | 329 | 3.0 | 11.0 | 0.00 | 0.22 | 0.22 | 86 | 1013.2 |
| 20260506152557 | 53 | 345 | 2.0 | 10.0 | 0.00 | 0.22 | 0.22 | 84 | 1013.1 |
| 20260506152417 | 53 | 342 | 2.0 | 10.0 | 0.00 | 0.22 | 0.22 | 82 | 1012.6 |
| 20260506151556 | 53 | 73 | 3.0 | 10.0 | 0.00 | 0.22 | 0.22 | 82 | 1012.5 |
| 20260506151414 | 53 | 343 | 3.0 | 10.0 | 0.00 | 0.22 | 0.22 | 83 | 1012.5 |
| 20260506150556 | 53 | 2 | 3.0 | 10.0 | 0.00 | 0.22 | 0.22 | 83 | 1012.5 |
| 20260506150059 | 52 | 291 | 4.0 | 11.0 | 0.00 | 0.22 | 0.22 | 82 | 1012.5 |
| 20260506145556 | 52 | 319 | 5.0 | 12.0 | 0.00 | 0.22 | 0.22 | 82 | 1012.6 |
| 20260506145056 | 52 | 323 | 5.0 | 12.0 | 0.00 | 0.22 | 0.22 | 82 | 1012.6 |
| 20260506144556 | 53 | 328 | 5.0 | 12.0 | 0.00 | 0.22 | 0.22 | 82 | 1012.7 |
| 20260506144056 | 53 | 331 | 4.0 | 12.0 | 0.00 | 0.22 | 0.22 | 81 | 1012.6 |
| 20260506143557 | 53 | 103 | 3.0 | 11.0 | 0.00 | 0.22 | 0.22 | 81 | 1012.8 |
| 20260506143057 | 53 | 99 | 4.0 | 13.0 | 0.00 | 0.22 | 0.22 | 80 | 1012.5 |
| 20260506142557 | 53 | 331 | 4.0 | 13.0 | 0.00 | 0.22 | 0.22 | 79 | 1012.3 |
| 20260506142056 | 53 | 330 | 5.0 | 12.0 | 0.00 | 0.22 | 0.22 | 79 | 1012.1 |
| 20260506141557 | 53 | 319 | 5.0 | 12.0 | 0.00 | 0.22 | 0.22 | 79 | 1012.2 |
| 20260506141052 | 53 | 335 | 4.0 | 12.0 | 0.00 | 0.22 | 0.22 | 79 | 1011.9 |
| 20260506140607 | 53 | 327 | 5.0 | 13.0 | 0.00 | 0.22 | 0.22 | 79 | 1012.2 |
| 20260506140054 | 53 | 341 | 5.0 | 14.0 | 0.00 | 0.22 | 0.22 | 79 | 1012.3 |
| 20260506135553 | 53 | 336 | 4.0 | 14.0 | 0.00 | 0.22 | 0.22 | 78 | 1012.2 |
| 20260506135054 | 53 | 76 | 5.0 | 13.0 | 0.00 | 0.22 | 0.22 | 79 | 1012.2 |
| 20260506134556 | 53 | 340 | 5.0 | 13.0 | 0.00 | 0.22 | 0.22 | 78 | 1012.1 |
| 20260506134055 | 53 | 341 | 5.0 | 14.0 | 0.00 | 0.22 | 0.22 | 78 | 1012.0 |
| 20260506133602 | 53 | 348 | 6.0 | 14.0 | 0.00 | 0.22 | 0.22 | 78 | 1012.1 |
| 20260506133053 | 53 | 340 | 4.0 | 13.0 | 0.00 | 0.22 | 0.22 | 78 | 1012.1 |
| 20260506132555 | 52 | 323 | 4.0 | 10.0 | 0.00 | 0.22 | 0.22 | 78 | 1012.2 |
| 20260506132050 | 52 | 319 | 5.0 | 11.0 | 0.00 | 0.22 | 0.22 | 78 | 1012.4 |
| 20260506131551 | 52 | 56 | 6.0 | 14.0 | 0.00 | 0.22 | 0.22 | 78 | 1012.4 |
| 20260506131048 | 52 | 351 | 6.0 | 14.0 | 0.02 | 0.22 | 0.22 | 78 | 1012.5 |
| 20260506130550 | 52 | 306 | 4.0 | 12.0 | 0.02 | 0.22 | 0.22 | 78 | 1012.3 |
| 20260506130046 | 52 | 331 | 5.0 | 13.0 | 0.02 | 0.22 | 0.22 | 79 | 1012.4 |
| 20260506125529 | 51 | 337 | 6.0 | 13.0 | 0.02 | 0.22 | 0.22 | 79 | 1012.6 |
| 20260506125030 | 51 | 324 | 7.0 | 13.0 | 0.03 | 0.22 | 0.22 | 79 | 1012.7 |
| 20260506124841 | 51 | 309 | 7.0 | 13.0 | 0.05 | 0.22 | 0.22 | 79 | 1012.7 |
| 20260506124030 | 51 | 321 | 6.0 | 12.0 | 0.06 | 0.22 | 0.22 | 78 | 1012.5 |
| 20260506123542 | 51 | 333 | 6.0 | 14.0 | 0.07 | 0.22 | 0.22 | 78 | 1012.8 |
| 20260506123342 | 51 | 331 | 6.0 | 14.0 | 0.09 | 0.22 | 0.22 | 77 | 1012.9 |
| 20260506122841 | 51 | 337 | 6.0 | 14.0 | 0.14 | 0.22 | 0.22 | 77 | 1012.9 |
| 20260506122342 | 51 | 355 | 7.0 | 15.0 | 0.14 | 0.22 | 0.22 | 77 | 1012.9 |
| 20260506121527 | 51 | 350 | 7.0 | 15.0 | 0.13 | 0.22 | 0.22 | 78 | 1012.8 |
| 20260506121027 | 52 | 332 | 7.0 | 14.0 | 0.12 | 0.20 | 0.20 | 78 | 1012.6 |
| 20260506120542 | 52 | 341 | 7.0 | 14.0 | 0.13 | 0.20 | 0.20 | 77 | 1012.6 |
| 20260506120025 | 52 | 335 | 6.0 | 14.0 | 0.13 | 0.20 | 0.20 | 77 | 1012.7 |
| 20260506115835 | 52 | 288 | 7.0 | 17.0 | 0.13 | 0.20 | 0.20 | 75 | 1012.9 |
| 20260506115025 | 52 | 333 | 8.0 | 17.0 | 0.13 | 0.19 | 0.19 | 76 | 1012.9 |
| 20260506114525 | 53 | 327 | 8.0 | 16.0 | 0.11 | 0.17 | 0.16 | 73 | 1012.6 |
| 20260506114025 | 53 | 329 | 8.0 | 19.0 | 0.10 | 0.16 | 0.15 | 73 | 1012.2 |
| 20260506113525 | 53 | 333 | 9.0 | 19.0 | 0.10 | 0.15 | 0.15 | 75 | 1012.2 |
| 20260506113124 | 53 | 327 | 7.0 | 18.0 | 0.08 | 0.13 | 0.13 | 75 | 1012.4 |
| 20260506112025 | 54 | 321 | 4.0 | 15.0 | 0.04 | 0.08 | 0.08 | 68 | 1011.6 |
| 20260506111524 | 53 | 229 | 6.0 | 15.0 | 0.04 | 0.08 | 0.08 | 68 | 1012.1 |
| 20260506111024 | 53 | 355 | 6.0 | 17.0 | 0.04 | 0.08 | 0.07 | 70 | 1012.2 |
| 20260506110522 | 54 | 341 | 6.0 | 17.0 | 0.03 | 0.07 | 0.07 | 69 | 1012.3 |
| 20260506110021 | 54 | 338 | 4.0 | 12.0 | 0.03 | 0.07 | 0.07 | 70 | 1012.2 |
| 20260506105831 | 54 | 326 | 5.0 | 17.0 | 0.03 | 0.07 | 0.07 | 68 | 1012.2 |
| 20260506105020 | 54 | 1 | 6.0 | 17.0 | 0.03 | 0.07 | 0.07 | 70 | 1012.4 |
| 20260506104832 | 54 | 355 | 6.0 | 17.0 | 0.02 | 0.06 | 0.06 | 68 | 1011.2 |
| 20260506104020 | 54 | 330 | 6.0 | 16.0 | 0.02 | 0.06 | 0.06 | 70 | 1011.2 |
| 20260506103520 | 54 | 339 | 6.0 | 16.0 | 0.01 | 0.05 | 0.05 | 70 | 1011.4 |
| 20260506103329 | 53 | 342 | 6.0 | 16.0 | 0.01 | 0.05 | 0.05 | 71 | 1011.6 |
| 20260506102830 | 53 | 309 | 6.0 | 16.0 | 0.00 | 0.04 | 0.04 | 73 | 1011.1 |
| 20260506102331 | 53 | 324 | 5.0 | 15.0 | 0.00 | 0.04 | 0.04 | 73 | 1011.6 |
| 20260506101830 | 53 | 337 | 4.0 | 12.0 | 0.00 | 0.04 | 0.04 | 75 | 1011.7 |
| 20260506101019 | 52 | 353 | 4.0 | 12.0 | 0.00 | 0.04 | 0.04 | 74 | 1011.6 |
| 20260506100519 | 52 | 338 | 5.0 | 13.0 | 0.00 | 0.04 | 0.04 | 74 | 1011.9 |
| 20260506100018 | 52 | 348 | 5.0 | 13.0 | 0.00 | 0.04 | 0.04 | 78 | 1012.2 |
| 20260506095518 | 52 | 333 | 5.0 | 12.0 | 0.00 | 0.04 | 0.04 | 78 | 1012.2 |
| 20260506095018 | 52 | 358 | 4.0 | 12.0 | 0.01 | 0.04 | 0.04 | 79 | 1012.1 |
| 20260506094520 | 52 | 95 | 4.0 | 10.0 | 0.02 | 0.04 | 0.04 | 80 | 1011.9 |
| 20260506094019 | 51 | 304 | 4.0 | 11.0 | 0.02 | 0.04 | 0.04 | 80 | 1012.0 |
| 20260506093519 | 51 | 4 | 4.0 | 11.0 | 0.02 | 0.04 | 0.04 | 81 | 1012.1 |
| 20260506093020 | 51 | 325 | 4.0 | 12.0 | 0.02 | 0.04 | 0.04 | 81 | 1012.0 |
| 20260506092519 | 51 | 350 | 3.0 | 12.0 | 0.03 | 0.04 | 0.04 | 82 | 1011.7 |
| 20260506092017 | 51 | 325 | 3.0 | 11.0 | 0.03 | 0.04 | 0.04 | 84 | 1011.5 |
| 20260506091516 | 50 | 23 | 4.0 | 11.0 | 0.04 | 0.04 | 0.04 | 84 | 1011.5 |
| 20260506091018 | 50 | 255 | 5.0 | 11.0 | 0.04 | 0.04 | 0.04 | 84 | 1011.7 |
| 20260506090517 | 49 | 325 | 4.0 | 11.0 | 0.04 | 0.04 | 0.04 | 86 | 1012.0 |
| 20260506090016 | 49 | 347 | 3.0 | 13.0 | 0.03 | 0.04 | 0.04 | 89 | 1012.2 |
| 20260506085517 | 49 | 32 | 3.0 | 13.0 | 0.03 | 0.03 | 0.03 | 90 | 1012.5 |
| 20260506085329 | 49 | 52 | 3.0 | 11.0 | 0.02 | 0.02 | 0.02 | 91 | 1012.5 |
| 20260506084516 | 49 | 347 | 3.0 | 10.0 | 0.02 | 0.02 | 0.02 | 92 | 1012.5 |
| 20260506084017 | 49 | 43 | 3.0 | 11.0 | 0.02 | 0.02 | 0.02 | 93 | 1012.2 |
| 20260506083517 | 48 | 321 | 4.0 | 11.0 | 0.02 | 0.02 | 0.02 | 93 | 1012.4 |
| 20260506083018 | 49 | 335 | 4.0 | 11.0 | 0.01 | 0.01 | 0.01 | 93 | 1012.4 |
| 20260506082517 | 48 | 305 | 4.0 | 11.0 | 0.01 | 0.01 | 0.01 | 93 | 1012.5 |
| 20260506082019 | 48 | 324 | 4.0 | 10.0 | 0.01 | 0.01 | 0.01 | 93 | 1012.5 |
| 20260506081517 | 48 | 345 | 4.0 | 10.0 | 0.00 | 0.00 | 0.00 | 93 | 1012.5 |
| 20260506081018 | 48 | 343 | 5.0 | 11.0 | 0.00 | 0.00 | 0.00 | 94 | 1012.4 |
| 20260506080515 | 48 | 337 | 5.0 | 12.0 | 0.00 | 0.00 | 0.00 | 94 | 1012.4 |
| 20260506073509 | 49 | 348 | 5.0 | 12.0 | 0.00 | 0.00 | 0.00 | 90 | 1012.2 |
| 20260506073342 | 49 | 345 | 5.0 | 12.0 | 0.00 | 0.00 | 0.00 | 90 | 1011.9 |
| 20260506072821 | 48 | 15 | 5.0 | 12.0 | 0.00 | 0.00 | 0.00 | 90 | 1012.0 |
| 20260506072009 | 48 | 343 | 6.0 | 12.0 | 0.00 | 0.00 | 0.00 | 90 | 1012.0 |
| 20260506071822 | 48 | 331 | 7.0 | 13.0 | 0.00 | 0.00 | 0.00 | 89 | 1011.9 |
| 20260506071009 | 48 | 353 | 7.0 | 13.0 | 0.00 | 0.00 | 0.00 | 90 | 1011.6 |
| 20260506070511 | 48 | 337 | 7.0 | 13.0 | 0.00 | 0.00 | 0.00 | 89 | 1011.6 |
| 20260506062005 | 47 | 332 | 7.0 | 15.0 | 0.00 | 0.00 | 0.00 | 91 | 1011.6 |
| 20260506061503 | 47 | 309 | 8.0 | 14.0 | 0.00 | 0.00 | 0.00 | 91 | 1011.6 |
| 20260506061312 | 47 | 322 | 8.0 | 14.0 | 0.00 | 0.00 | 0.00 | 92 | 1011.6 |
| 20260506060501 | 46 | 334 | 8.0 | 15.0 | 0.00 | 0.00 | 0.00 | 92 | 1011.6 |
| 20260506051005 | 43 | 341 | 6.0 | 11.0 | 0.00 | 0.00 | 0.00 | 95 | 1012.3 |
| 20260506050501 | 43 | 335 | 6.0 | 11.0 | 0.00 | 0.00 | 0.00 | 95 | 1012.4 |
| 20260506044957 | 43 | 310 | 6.0 | 11.0 | 0.00 | 0.00 | 0.00 | 95 | 1012.3 |
| 20260506044457 | 43 | 333 | 6.0 | 11.0 | 0.00 | 0.00 | 0.00 | 95 | 1012.3 |
| 20260506043958 | 43 | 336 | 6.0 | 11.0 | 0.00 | 0.00 | 0.00 | 95 | 1012.3 |
| 20260506043457 | 43 | 327 | 6.0 | 11.0 | 0.00 | 0.00 | 0.00 | 95 | 1012.3 |
| 20260506042957 | 42 | 343 | 6.0 | 11.0 | 0.00 | 0.00 | 0.00 | 95 | 1012.3 |
| 20260506042457 | 42 | 343 | 5.0 | 11.0 | 0.00 | 0.00 | 0.00 | 95 | 1012.4 |
| 20260506042311 | 42 | 324 | 5.0 | 10.0 | 0.00 | 0.00 | 0.00 | 95 | 1012.5 |
| 20260506041458 | 42 | 333 | 5.0 | 10.0 | 0.00 | 0.00 | 0.00 | 95 | 1012.6 |
| 20260506040957 | 42 | 311 | 5.0 | 10.0 | 0.00 | 0.00 | 0.00 | 95 | 1012.6 |